Preview of NWS' New Version of Forecast
This preview is not operational and should not be used for support decisions.

Regional Weather Roundup (RWR)

Issued by National Weather Service (NWS)

                            
000
ASUS43 KDMX 211606
RWRIA 

WEATHER ROUNDUP FOR IOWA
NATIONAL WEATHER SERVICE DES MOINES IA
1100 AM CDT SUN APR 21 2019

NOTE: "FAIR" INDICATES FEW OR NO CLOUDS BELOW 12,000 FEET WITH NO
SIGNIFICANT WEATHER AND/OR OBSTRUCTIONS TO VISIBILITY.

* - THESE STATIONS ARE NOT NWS STATIONS...THUS NOT UNDER NWS
QUALITY CONTROL.  THEY ALSO DO NOT REPORT WEATHER SUCH 
AS PRECIPITATION OR FOG.  

IAZ001>003-012>014-020>022-031>034-043>046-211700-
   NORTHWEST IOWA
  
CITY           SKY/WX    TMP DP  RH WIND       PRES   REMARKS
CARROLL *      SUNNY     75  48  38 S21       29.75F                  
CHEROKEE *     SUNNY     71  50  47 S13       29.72F                  
DENISON *      SUNNY     75  48  38 S14       29.75F                  
LE MARS *      SUNNY     72  48  43 S18       29.69S                  
SHELDON *      SUNNY     73  50  43 S18       29.68S                  
SIOUX CITY     PTSUNNY   71  50  47 SE13      29.70F                  
SPENCER        SUNNY     74  50  42 S18       29.72R                  
STORM LAKE *   SUNNY     72  48  43 S18       29.71S                  
$$
 
IAZ055>058-069>071-079>083-090>094-211700-
   SOUTHWEST IOWA
  
CITY           SKY/WX    TMP DP  RH WIND       PRES   REMARKS
ATLANTIC *     SUNNY     75  48  38 S17G24    29.75S                  
AUDUBON *      SUNNY     73  48  40 CALM      29.77F                  
CLARINDA *     SUNNY     75  48  38 S22G29    29.77S                  
COUNCIL BLFS * CLOUDY    72  50  46 S14G23    29.74R                  
CRESTON *      SUNNY     73  48  40 S18G29    29.80S                  
HARLAN  *      SUNNY     73  48  40 S17G25    29.74F                  
LAMONI         SUNNY     72  48  42 S16G24    29.83F                  
RED OAK *      SUNNY     77  50  38 S23G29    29.75S                  
SHENANDOAH *   MOSUNNY   77  50  38 S24       29.74R                  
$$
 
IAZ047>049-059>061-072>074-084-211700-
   CENTRAL IOWA
  
CITY           SKY/WX    TMP DP  RH WIND       PRES   REMARKS
AMES           SUNNY     73  50  44 S16       29.81F                  
ANKENY *       SUNNY     73  48  40 S15       29.83F                  
BOONE *        SUNNY     72  48  43 S18G24    29.79S                  
CHARITON *     SUNNY     73  48  40 S17       29.85S                  
DES MOINES     MOSUNNY   74  47  38 S15G22    29.82F                  
GRINNELL*      SUNNY     73  48  41 S15       29.88S                  
KNOXVILLE *    SUNNY     73  46  38 S14G21    29.85S                  
MARSHALLTOWN   SUNNY     72  50  45 S17       29.82F                  
NEWTON *       SUNNY     73  48  40 S15       29.85F                  
PELLA *        SUNNY     76  44  32 S12       29.87F                  
PERRY *        FAIR      74  44  33 S16       29.79F                  
$$
 
IAZ004>006-015-016-023>025-035-036-211700-
   NORTH CENTRAL IOWA
  
CITY           SKY/WX    TMP DP  RH WIND       PRES   REMARKS
ALGONA *       SUNNY     72  50  46 S21G28    29.74S                  
CLARION *      SUNNY     72  48  43 S15G23    29.79S                  
ESTHERVILLE    SUNNY     71  50  47 S23G30    29.72S                  
FORT DODGE *   SUNNY     74  50  42 S13       29.77F                  
MASON CITY     SUNNY     71  51  49 S18       29.80F                  
FOREST CITY *  FAIR      72  46  40 S18       29.78S                  
IOWA FALLS *   FAIR      72  49  43 S20       29.81R                  
$$

IAZ007>011-017>019-026>030-037>042-050>054-066-211700-
   NORTHEAST IOWA
  
CITY           SKY/WX    TMP DP  RH WIND       PRES   REMARKS
CEDAR RAPIDS   FAIR      74  46  36 S16       29.89S                  
CHARLES CITY * FAIR      72  48  43 S18G25    29.82S                  
CLINTON *      FAIR      71  44  37 S12       29.96S                  
DECORAH *      FAIR      70  45  40 S10G17    29.83S                  
DUBUQUE        FAIR      69  44  40 S15       29.92F                  
MONTICELLO *   FAIR      73  45  35 S12       29.91S                  
OELWEIN *      FAIR      73  48  40 MISG      29.86F                  
WATERLOO       FAIR      74  48  39 S17G25    29.83F                  
$$
 
IAZ064-065-067-068-078-211700-
   EAST CENTRAL IOWA
  
CITY           SKY/WX    TMP DP  RH WIND       PRES   REMARKS
DAVENPORT      FAIR      74  41  30 S15G21    29.96S                  
IOWA CITY      FAIR      74  46  36 S13       29.92F                  
MT. PLEASANT * SUNNY     75  46  35 S14       29.94S                  
MUSCATINE *    FAIR      73  43  33 S13       29.94S                  
QUAD CITIES    FAIR      77  43  29 S12       29.94S                  
$$
 
IAZ062-063-075>077-085>089-095>099-211700-
   SOUTHEAST IOWA
  
CITY           SKY/WX    TMP DP  RH WIND       PRES   REMARKS
BURLINGTON     SUNNY     71  46  40 S12       29.95S                  
FAIRFIELD *    SUNNY     75  45  33 S12G20    29.91S                  
FORT MADISON * SUNNY     72  45  37 S10       29.96S                  
KEOKUK *       SUNNY     72  45  37 S13       29.94F                  
OSKALOOSA *    FAIR      75  44  32 S13       29.89S                  
CENTERVILLE *  FAIR      73  48  40 SE14      29.90S                  
OTTUMWA        SUNNY     74  47  38 S14       29.89S                  
WASHINGTON *   SUNNY     75  45  33 S15       29.92F                  
$$

ABBREVIATIONS USED IN REMARKS
   TC - TEMPERATURES IN CELSIUS
  WCI - WIND CHILL INDEX
   HX - HEAT INDEX
  VSB - VISIBILITY  
$$